Weather History for Ankeny, IA

Change the Weather History Date:

Monday, June 24, 2013

  Actual Average (KDSM) Record (KDSM)
Temperature  
Mean Temperature 73 °F 74 °F  
Max Temperature 78 °F 84 °F 102 °F (1988)
Min Temperature 68 °F 65 °F 45 °F (1887)
Degree Days  
Heating Degree Days 0 0  
Month to date heating degree days 14  
Since 1 June heating degree days 14  
Since 1 July heating degree days 6199  
Cooling Degree Days 8 9  
Month to date cooling degree days 159  
Year to date cooling degree days 235  
Since 1 June cooling degree days 159  
Growing Degree Days 23 (Base 50)    
Moisture  
Dew Point 68 °F    
Average Humidity 88    
Maximum Humidity 100    
Minimum Humidity 73    
Precipitation  
Precipitation 0.94 in 0.17 in 4.80 in (1879)
Month to date precipitation 3.96  
Year to date precipitation 17.14  
Snow  
Snow 0.00 in 0.00 in - ()
Month to date snowfall 0.0  
Since 1 June snowfall 0.0  
Since 1 July snowfall 35.3  
Snow Depth -    
Sea Level Pressure  
Sea Level Pressure 29.89 in    
Wind  
Wind Speed 7 mph (SSE)    
Max Wind Speed 26 mph    
Max Gust Speed 40 mph    
Visibility 9 miles    
Events Rain    
T = Trace of Precipitation, MM = Missing Value Source: NWS Daily Summary

Daily Weather History Graph

Daily Weather History Graph

Search for Another Location

Airport:

Trip Planner

Search our weather history database for the weather conditions in past years. The results will help you decide how hot, cold, wet, or windy it might be!

Date:

Astronomy

Jun. 24, 2013 Rise Set
Actual Time 5:40 AM CDT 8:52 PM CDT
Civil Twilight 5:06 AM CDT 9:26 PM CDT
Nautical Twilight 4:22 AM CDT 10:10 PM CDT
Astronomical Twilight 3:29 AM CDT 11:03 PM CDT
Moon 9:53 PM CDT (6/24) 7:10 AM CDT (6/24)
Length of Visible Light 16h 20m
Length of Day
15h 12m
Full, 98% of the Moon is Illuminated
Jun 24
Full
Jun 29
Last Quarter
Jul 8
New
Jul 15
First Quarter
Jul 22
Full

Hourly Weather History & Observations

Time (CDT) Temp. Dew Point Humidity Pressure Visibility Wind Dir Wind Speed Gust Speed Precip Events Conditions
12:15 AM 71.6 °F 71.6 °F 100% 29.93 in 1.8 mi SE 5.8 mph - N/A Rain Rain
12:35 AM 71.6 °F 69.8 °F 94% 29.94 in 7.0 mi SSE 5.8 mph - N/A Rain Light Rain
12:55 AM 71.6 °F 69.8 °F 94% 29.94 in 10.0 mi ESE 8.1 mph - 0.29 in   Mostly Cloudy
1:15 AM 71.6 °F 69.8 °F 94% 29.92 in 10.0 mi SSE 8.1 mph - N/A   Light Drizzle
1:35 AM 71.6 °F 69.8 °F 94% 29.90 in 10.0 mi SSE 9.2 mph - N/A   Mostly Cloudy
1:55 AM 71.6 °F 69.8 °F 94% 29.92 in 10.0 mi Calm Calm - N/A   Partly Cloudy
2:15 AM 71.6 °F 69.8 °F 94% 29.90 in 10.0 mi South 5.8 mph - N/A   Clear
2:35 AM 71.6 °F 69.8 °F 94% 29.90 in 10.0 mi South 11.5 mph - N/A   Partly Cloudy
2:55 AM 73.4 °F 66.2 °F 78% 29.89 in 10.0 mi SW 18.4 mph 25.3 mph N/A   Mostly Cloudy
3:15 AM 73.4 °F 64.4 °F 73% 29.91 in 10.0 mi WSW 5.8 mph 12.7 mph N/A   Mostly Cloudy
3:35 AM 71.6 °F 66.2 °F 83% 29.93 in 10.0 mi NE 4.6 mph - N/A   Mostly Cloudy
3:55 AM 71.6 °F 66.2 °F 83% 29.94 in 10.0 mi West 6.9 mph - N/A   Light Drizzle
4:15 AM 69.8 °F 68.0 °F 94% 29.97 in 1.5 mi SW 6.9 mph 16.1 mph N/A Rain Rain
4:35 AM 68.0 °F 68.0 °F 100% 29.94 in 5.0 mi SW 6.9 mph - N/A Rain Light Rain
4:55 AM 68.0 °F 66.2 °F 94% 29.92 in 6.0 mi SSW 5.8 mph - 0.45 in Rain Light Rain
5:15 AM 68.0 °F 66.2 °F 94% 29.92 in 10.0 mi South 5.8 mph - N/A   Light Drizzle
5:35 AM 68.0 °F 66.2 °F 94% 29.91 in 9.0 mi SSE 10.4 mph - N/A Rain Light Rain
5:55 AM 68.0 °F 68.0 °F 100% 29.90 in 10.0 mi South 9.2 mph - 0.02 in   Partly Cloudy
6:15 AM 69.8 °F 68.0 °F 94% 29.90 in 10.0 mi South 8.1 mph - N/A   Clear
6:35 AM 69.8 °F 68.0 °F 94% 29.90 in 10.0 mi South 4.6 mph - N/A   Clear
6:55 AM 69.8 °F 68.0 °F 94% 29.92 in 10.0 mi SSE 6.9 mph - N/A   Scattered Clouds
7:15 AM 69.8 °F 69.8 °F 100% 29.93 in 10.0 mi SSE 4.6 mph - N/A   Mostly Cloudy
7:35 AM 71.6 °F 69.8 °F 94% 29.93 in 9.0 mi SSE 8.1 mph - N/A   Overcast
7:55 AM 71.6 °F 69.8 °F 94% 29.93 in 10.0 mi SSE 12.7 mph - N/A   Overcast
8:15 AM 71.6 °F 69.8 °F 94% 29.92 in 9.0 mi SE 6.9 mph - N/A   Mostly Cloudy
8:35 AM 73.4 °F 71.6 °F 94% 29.91 in 9.0 mi SE 6.9 mph - N/A   Clear
8:55 AM 73.4 °F 71.6 °F 94% 29.93 in 10.0 mi SE 6.9 mph - N/A   Scattered Clouds
9:15 AM 73.4 °F 71.6 °F 94% 29.93 in 10.0 mi SSE 9.2 mph - N/A   Mostly Cloudy
9:35 AM 73.4 °F 71.6 °F 94% 29.91 in 8.0 mi SSE 8.1 mph - N/A Rain Light Rain
9:55 AM 71.6 °F 68.0 °F 88% 29.92 in 10.0 mi SSW 9.2 mph - 0.03 in   Light Drizzle
10:15 AM 73.4 °F 71.6 °F 94% 29.90 in 10.0 mi South 5.8 mph - N/A   Partly Cloudy
10:35 AM 75.2 °F 71.6 °F 89% 29.91 in 10.0 mi SE 6.9 mph - N/A   Clear
10:55 AM 77.0 °F 71.6 °F 83% 29.93 in 10.0 mi SE 8.1 mph - 0.01 in   Clear
11:15 AM 77.0 °F 71.6 °F 83% 29.95 in 10.0 mi SSE 8.1 mph - N/A   Partly Cloudy
11:35 AM 78.8 °F 73.4 °F 83% 29.96 in 10.0 mi South 9.2 mph - N/A   Scattered Clouds
11:55 AM 77.0 °F 71.6 °F 83% 29.94 in 10.0 mi SE 9.2 mph - N/A   Overcast
12:15 PM 73.4 °F 68.0 °F 83% 29.94 in - West 26.5 mph 40.3 mph N/A   Overcast
12:35 PM 68.0 °F 64.4 °F 88% 29.91 in 2.0 mi WNW 10.4 mph 26.5 mph N/A Rain Light Rain
12:55 PM 68.0 °F 64.4 °F 88% 29.94 in 10.0 mi East 9.2 mph - 0.13 in   Scattered Clouds
1:15 PM 69.8 °F 64.4 °F 83% 29.93 in 10.0 mi Calm Calm 11.5 mph N/A   Mostly Cloudy
1:35 PM 69.8 °F 66.2 °F 88% 29.91 in 10.0 mi Calm Calm - N/A   Light Drizzle
1:55 PM 69.8 °F 66.2 °F 88% 29.94 in 9.0 mi Variable 5.8 mph 16.1 mph 0.01 in   Light Drizzle
2:15 PM 69.8 °F 66.2 °F 88% 29.97 in 10.0 mi SSE 9.2 mph - N/A   Scattered Clouds
2:35 PM 68.0 °F 66.2 °F 94% 29.93 in 10.0 mi ESE 5.8 mph - N/A   Partly Cloudy
2:55 PM 69.8 °F 66.2 °F 88% 29.90 in 10.0 mi East 10.4 mph 16.1 mph N/A   Clear
3:15 PM 68.0 °F 66.2 °F 94% 29.87 in 10.0 mi East 11.5 mph 20.7 mph N/A   Clear
3:35 PM 69.8 °F 66.2 °F 88% 29.86 in 10.0 mi East 6.9 mph - N/A   Clear
3:55 PM 69.8 °F 66.2 °F 88% 29.85 in 10.0 mi East 5.8 mph 11.5 mph N/A   Clear
4:15 PM 71.6 °F 66.2 °F 83% 29.85 in 10.0 mi Variable 5.8 mph - N/A   Clear
4:35 PM 73.4 °F 66.2 °F 78% 29.87 in 10.0 mi SSE 6.9 mph - N/A   Clear
4:55 PM 73.4 °F 66.2 °F 78% 29.88 in 10.0 mi SSE 8.1 mph - N/A   Clear
5:15 PM 75.2 °F 66.2 °F 73% 29.88 in 10.0 mi SSE 10.4 mph - N/A   Clear
5:35 PM 75.2 °F 66.2 °F 73% 29.87 in 10.0 mi SSE 8.1 mph - N/A   Partly Cloudy
5:55 PM 75.2 °F 66.2 °F 73% 29.85 in 10.0 mi SE 6.9 mph - N/A   Scattered Clouds
6:15 PM 75.2 °F 68.0 °F 78% 29.84 in 10.0 mi SE 8.1 mph - N/A   Clear
6:35 PM 77.0 °F 68.0 °F 74% 29.84 in 10.0 mi SE 4.6 mph - N/A   Clear
6:55 PM 77.0 °F 68.0 °F 74% 29.84 in 10.0 mi SE 6.9 mph - N/A   Clear
7:15 PM 75.2 °F 68.0 °F 78% 29.84 in 10.0 mi SE 8.1 mph - N/A   Clear
7:35 PM 75.2 °F 68.0 °F 78% 29.83 in 10.0 mi SE 9.2 mph - N/A   Clear
7:55 PM 75.2 °F 68.0 °F 78% 29.83 in 10.0 mi SE 10.4 mph - N/A   Clear
8:15 PM 73.4 °F 68.0 °F 83% 29.82 in 10.0 mi SE 5.8 mph - N/A   Clear
8:35 PM 73.4 °F 68.0 °F 83% 29.82 in 10.0 mi SE 8.1 mph - N/A   Clear
8:55 PM 71.6 °F 68.0 °F 88% 29.82 in 10.0 mi SE 5.8 mph - N/A   Clear
9:15 PM 71.6 °F 68.0 °F 88% 29.82 in 10.0 mi SE 5.8 mph - N/A   Clear
9:35 PM 71.6 °F 68.0 °F 88% 29.82 in - SSE 5.8 mph - N/A   Unknown
9:55 PM 71.6 °F 68.0 °F 88% 29.83 in 10.0 mi SE 5.8 mph - N/A   Clear
10:15 PM 71.6 °F 68.0 °F 88% 29.84 in 10.0 mi SSE 4.6 mph - N/A   Clear
10:35 PM 69.8 °F 68.0 °F 94% 29.84 in 10.0 mi SSE 4.6 mph - N/A   Clear
10:55 PM 69.8 °F 68.0 °F 94% 29.84 in 10.0 mi SSE 6.9 mph - N/A   Clear
11:15 PM 69.8 °F 68.0 °F 94% 29.84 in 10.0 mi SSE 8.1 mph - N/A   Clear
11:35 PM 69.8 °F 68.0 °F 94% 29.83 in 10.0 mi SSE 6.9 mph - N/A   Clear
11:55 PM 69.8 °F 68.0 °F 94% 29.82 in 10.0 mi SSE 8.1 mph - N/A   Clear